This is the latest recevied weather packets stored in our database for station/object K3XY-2. If no packets are shown the sender has not sent any weather packets the latest 10 day(s).
| Time | Temp. | Humidity | Pressure | Rain* | Wind** | Luminosity | Snow |
|---|---|---|---|---|---|---|---|
| 1777168733 | 5.56° C | 93% | 1016.1 hPa | 4.06 mm | - | - | - |
| 1777168133 | 5.56° C | 93% | 1016 hPa | 4.32 mm | - | - | - |
| 1777167534 | 5.56° C | 93% | 1016 hPa | 4.32 mm | - | - | - |
| 1777166933 | 5.56° C | 93% | 1015.8 hPa | 3.56 mm | - | - | - |
| 1777166333 | 5.56° C | 93% | 1015.7 hPa | 2.54 mm | - | - | - |
| 1777165734 | 6.11° C | 93% | 1015.5 hPa | 2.29 mm | - | - | - |
| 1777165133 | 6.11° C | 93% | 1015.4 hPa | 2.03 mm | - | - | - |
| 1777164533 | 6.11° C | 93% | 1015.3 hPa | 2.03 mm | - | - | - |
| 1777163933 | 6.11° C | 93% | 1015.3 hPa | 2.03 mm | - | - | - |
| 1777163334 | 6.11° C | 93% | 1015.1 hPa | 3.05 mm | - | - | - |
| 1777162733 | 6.11° C | 93% | 1015 hPa | 3.56 mm | - | - | - |
| 1777162133 | 6.11° C | 93% | 1014.7 hPa | 3.56 mm | - | - | - |
| 1777161534 | 6.11° C | 92% | 1014.6 hPa | 3.3 mm | - | - | - |
| 1777160933 | 6.11° C | 92% | 1014.6 hPa | 2.79 mm | - | - | - |
| 1777160333 | 6.11° C | 93% | 1014.6 hPa | 2.29 mm | - | - | - |
| 1777159733 | 6.67° C | 93% | 1014.5 hPa | 1.27 mm | - | - | - |
| 1777159134 | 6.67° C | 93% | 1014.1 hPa | 0.51 mm | - | - | - |
| 1777158533 | 6.67° C | 92% | 1014 hPa | 1.27 mm | - | - | - |
| 1777157933 | 6.67° C | 92% | 1013.9 hPa | 1.52 mm | - | - | - |
| 1777157333 | 6.67° C | 92% | 1013.7 hPa | 1.52 mm | - | - | - |
| 1777156733 | 6.67° C | 92% | 1013.8 hPa | 2.03 mm | - | - | - |
| 1777156133 | 6.67° C | 92% | 1013.5 hPa | 3.05 mm | - | - | - |
| 1777155533 | 6.67° C | 92% | 1013.4 hPa | 3.81 mm | - | - | - |
| 1777154934 | 6.67° C | 92% | 1013.7 hPa | 3.05 mm | - | - | - |
| 1777154333 | 6.67° C | 92% | 1013.3 hPa | 3.56 mm | - | - | - |
* Rain latest hour (hover to see other rain measurements)
** Current wind speed in m/s (hover to see current wind gust speed)